Location: Unspecified
(54.1780°N, 0.0000°E)
Time: 06:54:28
(UTC+00:00)

ISS - Visible Passes

Search period start: 20 October 2019 00:00
Search period end: 30 October 2019 00:00
Orbit: 411 x 421 km, 51.6° (Epoch: 20 October)

Date Brightness Start Highest point End Pass type
(mag) Time Alt. Az. Time Alt. Az. Time Alt. Az.
25 Oct -0.7 05:37:25 10° SSE 05:38:52 12° SE 05:40:20 10° ESE visible
27 Oct -1.5 05:35:16 10° SSW 05:37:55 22° SSE 05:40:36 10° E visible
28 Oct -1.1 04:47:25 11° S 04:49:28 16° SE 04:51:40 10° ESE visible
29 Oct -0.8 04:01:05 12° SE 04:01:05 12° SE 04:02:17 10° ESE visible
29 Oct -2.4 05:34:00 10° SW 05:37:04 35° SSE 05:40:11 10° E visible
